Wind_Speed
22 21 21 20 21 21 22 22 22 22 23 23 21 21 20 20 20 21 20 18 16 16 16 15 15 15 14 13 12 12 12 11 11 10 10 10 11 12 13 14 14 14 13 13
23 21 20 21 22 22 23 23 23 23 24 24 23 22 22 21 20 20 20 19 17 16 16 16 16 15 14 14 13 13 12 11 11 12 11 10 11 12 13 14 15 14 13 13
22 21 21 22 22 22 22 22 22 23 23 23 23 22 22 21 21 21 20 19 18 17 17 16 15 14 14 14 13 13 13 13 13 13 12 12 12 13 15 15 15 14 14 14
22 22 22 22 23 23 22 22 23 23 23 23 23 23 21 22 21 21 20 19 18 17 16 15 14 13 13 13 13 13 13 13 14 14 13 13 13 14 15 15 15 14 14 14
22 22 22 21 21 22 22 21 22 23 24 24 24 25 22 22 21 20 19 18 18 16 15 15 15 14 14 13 13 13 13 12 13 13 13 13 14 15 15 15 14 15 14 15
22 22 21 20 20 21 21 21 22 23 24 25 23 25 23 22 21 19 19 19 18 18 16 16 15 15 14 14 13 12 13 13 13 12 12 13 14 15 15 15 15 15 15 15
21 20 20 20 20 20 21 21 22 24 24 24 22 24 23 22 20 19 19 20 20 19 18 17 17 16 15 15 13 13 13 12 13 13 13 14 14 15 15 15 15 15 15 15
21 20 20 20 20 20 20 21 21 24 24 23 23 25 23 21 20 19 18 19 19 19 18 18 18 17 16 15 14 13 14 14 14 13 13 13 14 14 14 15 15 15 15 15
20 19 20 20 21 21 21 21 22 24 24 24 24 24 23 20 19 19 19 19 19 19 18 19 19 18 17 15 15 15 15 14 15 14 13 13 14 15 15 15 15 15 15 15
20 21 20 21 22 23 22 22 22 24 25 26 25 24 22 20 19 19 19 19 19 19 19 19 19 18 18 17 16 16 16 15 15 15 15 14 14 15 15 15 15 16 15 15
22 22 21 22 24 24 24 24 24 24 25 26 26 23 21 20 19 19 20 19 19 19 20 19 19 19 18 17 16 16 16 16 16 15 15 15 14 15 15 15 16 16 15 15
22 23 23 23 23 24 24 24 24 25 25 24 25 23 21 21 20 20 19 19 20 20 21 20 19 19 19 19 18 17 17 17 17 16 16 15 15 16 16 16 16 16 16 16
23 24 24 23 23 24 25 24 25 25 25 25 25 23 21 21 21 21 21 20 21 20 21 20 19 19 20 20 18 18 18 18 18 18 17 17 17 17 17 17 17 17 17 17
24 25 25 24 24 24 24 23 24 25 25 24 24 23 21 20 21 21 21 20 21 20 20 21 21 21 21 20 19 19 19 19 19 19 19 18 18 18 18 18 18 18 17 18
25 25 25 24 24 24 24 24 24 24 24 24 24 23 21 21 21 20 20 21 21 21 21 21 21 22 21 21 21 20 21 20 20 20 20 19 19 19 19 19 19 19 19 19
26 26 25 25 24 25 25 24 25 24 24 23 24 23 21 20 21 21 20 20 21 21 21 21 22 22 22 21 21 21 21 21 20 20 20 20 21 21 21 21 21 20 19 19
25 25 26 25 24 25 25 24 24 24 23 23 23 22 22 21 22 21 21 21 22 23 23 21 21 21 22 22 21 20 21 21 20 20 21 21 21 21 21 20 20 20 20 20
25 25 26 25 24 25 25 23 24 24 23 23 23 24 23 23 22 21 22 22 23 23 22 22 21 21 22 22 22 21 21 22 21 21 21 21 21 21 21 21 21 21 21 21
26 25 25 24 25 25 25 23 23 24 24 23 23 23 23 23 22 22 22 23 22 22 21 21 21 21 21 22 23 23 23 22 22 21 21 21 21 21 21 22 22 22 22 22
25 26 25 24 24 25 24 24 23 24 25 25 24 23 22 22 22 22 22 22 22 22 22 21 20 20 21 22 23 23 23 23 23 23 22 21 22 22 22 22 23 23 23 22
24 25 25 25 25 25 24 24 24 24 24 24 24 23 24 24 24 23 23 23 23 22 22 22 21 21 22 22 22 23 24 24 23 23 22 22 22 22 22 22 23 23 22 22
25 25 25 25 26 25 24 24 24 24 24 24 24 24 24 24 25 25 24 23 23 23 23 23 23 22 22 23 24 24 24 24 24 23 23 22 21 21 22 22 22 22 22 22
25 25 25 25 25 26 25 25 25 24 24 24 24 25 24 24 24 25 24 23 23 23 23 23 23 24 24 23 24 25 25 24 23 24 23 23 22 22 22 21 22 22 22 21
24 24 25 24 24 23 24 25 24 24 24 25 25 25 25 24 24 25 25 25 24 24 25 25 24 24 24 23 24 25 25 24 24 24 23 22 22 22 22 22 22 22 22 22
22 23 23 24 24 24 24 24 24 24 23 24 26 26 25 25 25 25 25 25 26 25 25 24 24 24 23 23 23 22 22 22 22 23 22 22 22 22 23 23 23 22 22 23
21 22 22 23 24 24 25 25 24 24 24 24 25 25 26 25 26 26 26 26 25 25 24 23 23 23 23 23 24 23 22 22 22 22 21 21 22 23 23 24 24 23 23 23
Wind_Direction
245 248 250 252 253 254 253 253 253 252 253 254 254 253 256 258 263 268 269 270 272 272 271 274 276 277 278 280 280 283 284 285 288 288 291 288 284 285 292 294 295 295 293 293
245 246 248 249 250 253 254 254 253 254 256 257 255 254 257 259 261 264 265 265 267 268 270 275 277 275 277 278 276 277 279 283 285 284 284 287 288 291 296 296 294 293 295 293
247 246 247 249 252 253 254 255 254 256 258 258 257 256 256 256 258 261 263 263 262 265 268 274 277 275 275 274 272 275 276 278 282 281 283 286 289 293 294 291 292 292 292 291
245 245 245 248 250 253 254 254 253 257 259 257 257 259 255 256 257 258 259 262 264 265 266 269 273 273 272 272 270 273 275 279 281 280 280 283 286 290 291 290 291 294 296 294
244 244 246 248 248 251 254 253 256 258 260 258 257 260 258 256 256 256 260 260 263 264 266 268 272 274 272 272 271 273 278 280 280 279 277 283 285 285 287 290 292 290 291 293
243 243 244 245 246 249 252 253 256 258 259 258 258 261 259 257 257 256 259 259 259 259 261 265 269 271 271 272 273 275 280 280 282 285 282 284 284 283 283 285 289 288 287 288
242 242 242 243 245 247 251 253 256 258 257 260 260 260 261 260 259 259 258 258 258 256 257 261 265 268 269 270 273 276 279 281 284 287 287 286 283 284 286 286 287 288 289 290
242 240 243 243 246 248 251 254 258 264 262 262 259 261 263 262 261 261 257 255 257 256 256 260 262 264 267 268 272 276 279 283 286 290 290 289 290 290 291 290 290 292 291 288
244 242 244 246 247 250 253 255 258 263 263 264 264 265 265 264 261 261 259 259 259 255 256 260 262 264 265 266 271 274 278 281 285 289 291 291 290 291 292 292 294 295 293 291
247 247 245 247 248 250 255 258 259 261 263 266 268 268 267 264 264 263 262 262 257 256 259 260 261 260 262 266 270 272 276 279 283 283 285 290 291 293 291 293 295 297 297 294
249 250 246 247 249 252 255 256 259 261 262 267 269 268 269 269 266 264 262 263 260 257 261 260 258 258 262 265 269 272 272 275 279 281 284 287 291 295 296 294 295 295 296 298
250 251 251 253 252 254 256 256 258 261 262 264 268 268 267 267 265 263 262 263 262 262 262 261 258 259 262 265 267 270 272 274 275 276 279 283 289 292 294 295 296 297 297 296
251 251 251 252 252 253 253 254 256 260 262 262 263 264 265 264 266 264 263 264 262 263 264 261 261 261 263 266 268 268 269 273 275 275 276 280 287 289 290 292 293 296 295 295
251 252 254 254 255 254 253 253 253 255 258 259 261 263 263 264 266 267 266 263 262 262 261 263 264 263 264 265 268 270 271 273 274 274 275 280 285 288 287 288 293 295 296 296
252 253 254 256 256 256 254 252 252 253 257 258 260 261 260 264 267 269 268 266 263 263 262 264 264 262 264 263 265 268 270 271 272 273 275 280 283 285 286 288 291 291 293 296
252 255 255 255 254 253 253 252 251 253 255 256 257 258 262 266 268 267 268 269 269 268 266 265 266 264 263 261 261 264 267 269 271 273 275 280 282 283 284 286 286 287 291 294
250 253 255 256 255 253 253 254 252 253 253 252 254 257 261 263 267 266 266 268 270 271 268 268 269 266 263 260 261 263 266 266 268 272 275 278 280 282 283 283 285 287 289 293
249 252 254 255 254 254 255 255 254 255 256 255 257 257 258 262 263 263 266 268 272 274 270 269 268 265 262 259 259 262 265 265 268 271 274 278 278 280 281 282 284 286 288 291
248 250 252 256 255 256 256 256 256 257 257 257 257 256 258 258 262 263 266 270 271 268 267 268 265 262 260 259 259 262 264 266 268 271 274 277 278 278 280 279 282 283 286 289
247 246 250 253 254 255 256 256 257 260 259 258 258 258 258 258 261 263 266 267 266 266 266 266 263 262 261 259 259 262 264 265 268 271 272 274 277 281 282 280 280 282 284 286
248 247 248 250 252 255 257 258 259 261 260 260 260 260 259 258 260 263 267 266 266 263 264 263 263 263 261 259 260 261 264 264 266 268 269 270 273 278 281 282 282 283 285 286
249 249 248 249 251 252 256 257 259 262 262 261 260 260 261 261 261 263 265 266 266 263 262 262 262 263 262 261 261 261 262 265 265 267 268 270 273 276 277 279 282 283 284 285
250 249 248 249 251 253 256 258 258 260 260 259 259 259 258 259 260 261 264 266 264 263 261 260 260 260 262 263 263 261 262 264 264 267 268 270 272 275 275 277 280 283 283 283
250 248 248 249 250 254 256 257 258 259 257 255 256 257 258 258 258 259 261 264 266 263 262 262 261 263 264 265 264 261 261 263 265 265 267 269 271 273 275 278 280 281 282 282
250 247 247 248 250 252 255 257 258 258 256 253 253 256 258 258 258 261 263 264 266 265 263 265 266 266 266 266 265 264 262 263 265 266 268 270 273 275 277 278 279 280 281 280
251 249 247 249 249 252 253 255 256 257 257 256 254 254 257 258 257 259 261 262 263 261 262 265 267 266 265 264 263 263 262 263 267 269 269 271 273 276 278 280 280 281 281 279
Height
5829 5832 5833 5835 5835 5836 5837 5838 5840 5841 5842 5842 5844 5845 5846 5847 5847 5847 5848 5848 5849 5849 5848 5848 5848 5847 5847 5846 5845 5845 5845 5845 5844 5843 5842 5841 5840 5840 5839 5838 5837 5836 5835 5834
5826 5827 5829 5830 5830 5832 5833 5834 5835 5836 5837 5837 5838 5840 5841 5842 5843 5843 5843 5844 5845 5845 5845 5845 5844 5844 5843 5842 5842 5842 5842 5841 5841 5840 5839 5838 5838 5837 5836 5835 5833 5832 5831 5830
5821 5824 5824 5825 5826 5827 5829 5830 5831 5831 5832 5832 5833 5835 5837 5838 5838 5839 5839 5840 5840 5841 5841 5841 5840 5840 5839 5839 5838 5838 5838 5838 5838 5837 5836 5835 5835 5834 5833 5831 5830 5829 5828 5827
5815 5818 5819 5820 5822 5823 5825 5826 5826 5826 5826 5827 5829 5829 5832 5833 5834 5835 5836 5836 5836 5837 5837 5837 5837 5836 5836 5835 5835 5835 5835 5835 5834 5833 5833 5832 5832 5831 5829 5828 5826 5825 5824 5823
5811 5813 5814 5816 5818 5819 5820 5821 5821 5821 5821 5822 5824 5824 5827 5828 5829 5831 5832 5832 5832 5833 5833 5833 5833 5833 5832 5832 5831 5831 5831 5831 5830 5830 5829 5828 5828 5827 5826 5824 5823 5822 5820 5819
5806 5808 5809 5812 5814 5815 5815 5816 5816 5816 5817 5818 5819 5820 5821 5823 5825 5826 5827 5827 5828 5828 5829 5829 5829 5829 5829 5828 5828 5828 5827 5827 5827 5826 5826 5825 5824 5823 5822 5820 5819 5818 5816 5815
5802 5803 5805 5807 5809 5810 5811 5812 5812 5812 5812 5813 5815 5814 5817 5819 5820 5821 5822 5822 5823 5824 5825 5825 5826 5826 5826 5825 5825 5824 5824 5823 5823 5823 5822 5821 5820 5819 5818 5816 5815 5814 5812 5811
5797 5799 5801 5802 5804 5806 5807 5808 5809 5808 5808 5809 5810 5809 5813 5814 5815 5816 5817 5817 5818 5819 5820 5821 5821 5822 5822 5821 5821 5820 5820 5820 5819 5819 5818 5817 5816 5815 5814 5812 5811 5809 5808 5806
5792 5795 5797 5798 5800 5801 5802 5803 5804 5804 5803 5803 5804 5805 5807 5809 5810 5811 5812 5812 5813 5814 5815 5816 5817 5817 5817 5817 5817 5817 5816 5816 5815 5815 5814 5813 5812 5811 5810 5808 5807 5805 5803 5802
5788 5791 5793 5794 5795 5796 5798 5799 5799 5798 5798 5798 5799 5800 5803 5804 5805 5806 5807 5808 5809 5809 5811 5811 5812 5812 5813 5813 5812 5812 5812 5812 5811 5811 5810 5809 5808 5807 5806 5804 5803 5801 5799 5798
5784 5786 5788 5789 5790 5791 5793 5793 5793 5793 5794 5794 5794 5798 5799 5799 5800 5801 5802 5803 5804 5805 5806 5806 5807 5808 5808 5808 5808 5808 5808 5807 5807 5807 5806 5806 5805 5804 5802 5800 5799 5798 5796 5794
5778 5780 5782 5784 5786 5786 5787 5788 5788 5789 5789 5789 5790 5794 5794 5795 5795 5796 5797 5798 5798 5799 5800 5801 5801 5802 5803 5803 5803 5803 5803 5803 5803 5802 5802 5801 5801 5799 5798 5796 5795 5793 5792 5790
5773 5774 5776 5778 5781 5781 5781 5782 5783 5783 5783 5784 5785 5789 5789 5790 5790 5790 5792 5792 5793 5794 5794 5795 5795 5796 5797 5797 5797 5797 5797 5798 5798 5797 5797 5797 5796 5795 5794 5792 5791 5789 5788 5786
5767 5768 5771 5773 5774 5775 5775 5776 5777 5778 5778 5779 5780 5782 5784 5784 5785 5785 5786 5787 5787 5788 5789 5790 5790 5790 5791 5791 5791 5792 5792 5792 5792 5792 5792 5792 5791 5790 5788 5787 5786 5784 5783 5781
5760 5762 5764 5766 5768 5769 5770 5771 5772 5773 5773 5774 5776 5777 5778 5779 5779 5780 5780 5781 5782 5783 5783 5784 5784 5784 5784 5785 5785 5786 5786 5786 5786 5787 5786 5786 5785 5784 5783 5782 5780 5779 5778 5776
5754 5756 5758 5760 5761 5762 5763 5764 5766 5767 5768 5769 5770 5771 5773 5773 5774 5774 5775 5776 5776 5777 5777 5778 5778 5778 5778 5778 5779 5780 5780 5780 5781 5781 5781 5780 5779 5778 5777 5776 5775 5774 5772 5771
5748 5750 5751 5753 5754 5755 5757 5759 5760 5761 5762 5764 5765 5767 5767 5768 5768 5769 5769 5770 5770 5770 5771 5771 5771 5771 5772 5772 5773 5774 5774 5774 5775 5775 5774 5774 5773 5772 5771 5770 5769 5768 5767 5765
5742 5743 5745 5746 5748 5749 5753 5753 5754 5755 5756 5757 5759 5760 5761 5762 5762 5763 5763 5763 5764 5763 5763 5764 5764 5764 5765 5766 5767 5767 5768 5768 5768 5768 5768 5768 5767 5766 5766 5765 5764 5763 5761 5760
5735 5736 5738 5739 5741 5743 5745 5747 5747 5749 5750 5751 5753 5754 5755 5756 5756 5757 5757 5757 5757 5756 5757 5757 5757 5758 5759 5759 5760 5761 5761 5762 5762 5762 5762 5762 5761 5760 5760 5759 5758 5757 5755 5754
5728 5729 5732 5733 5734 5736 5740 5740 5741 5744 5744 5745 5746 5748 5749 5750 5751 5752 5751 5751 5751 5751 5751 5751 5752 5752 5752 5753 5754 5754 5755 5755 5756 5755 5755 5755 5755 5754 5754 5753 5752 5750 5749 5747
5720 5722 5724 5726 5728 5729 5732 5733 5735 5737 5739 5739 5740 5741 5742 5744 5745 5745 5745 5745 5745 5745 5745 5745 5745 5746 5746 5747 5747 5748 5748 5748 5749 5748 5748 5748 5748 5748 5747 5746 5745 5744 5743 5741
5713 5716 5718 5720 5721 5725 5725 5726 5728 5730 5730 5731 5733 5734 5735 5736 5737 5738 5738 5738 5739 5739 5739 5739 5739 5739 5739 5740 5741 5741 5741 5742 5741 5742 5741 5741 5741 5741 5740 5739 5738 5737 5736 5735
5707 5710 5712 5714 5717 5717 5718 5719 5721 5722 5723 5725 5726 5727 5728 5729 5730 5731 5731 5732 5732 5733 5733 5733 5733 5733 5733 5733 5734 5734 5734 5734 5735 5735 5735 5735 5734 5734 5733 5732 5732 5731 5729 5728
5700 5702 5705 5707 5709 5710 5711 5713 5714 5715 5716 5717 5718 5720 5721 5722 5723 5724 5724 5725 5725 5726 5726 5726 5726 5726 5726 5726 5727 5727 5727 5727 5728 5728 5728 5728 5728 5727 5726 5725 5724 5724 5722 5721
5694 5696 5698 5700 5702 5704 5705 5706 5707 5708 5709 5710 5711 5713 5714 5715 5716 5717 5718 5718 5718 5719 5719 5719 5718 5719 5719 5719 5719 5719 5719 5720 5721 5721 5721 5721 5721 5720 5719 5719 5717 5716 5715 5713
5688 5690 5692 5694 5696 5697 5698 5699 5700 5701 5702 5703 5704 5706 5707 5708 5709 5710 5710 5711 5711 5711 5711 5711 5711 5712 5712 5712 5712 5712 5712 5713 5714 5714 5715 5714 5714 5713 5713 5712 5710 5709 5707 5706